Regional Weather Roundup
Issued by NWS

Home | Current Version | Previous Version | Text Only | Print | Product List | Glossary On
Versions: 1 2 3 4 5 6 7 8 9 10 11 12 13 14 15 16 17 18 19 20 21 22 23 24 25 26 27 28 29 30 31 32 33 34 35 36 37 38 39 40 41 42 43 44 45 46 47 48 49 50
940
ASUS43 KDTX 270010
RWRMI
MICHIGAN HOURLY REGIONAL WEATHER ROUNDUP
NATIONAL WEATHER SERVICE DETROIT/PONTIAC MI
ISSUED BY NATIONAL WEATHER SERVICE GRAND RAPIDS MI
700 PM EST SUN FEB 26 2017

NOTE: "FAIR" INDICATES FEW OR NO CLOUDS BELOW 12,000 FEET WITH NO
SIGNIFICANT WEATHER AND/OR OBSTRUCTION TO VISIBILITY.

MIZ047>049-052>055-059>063-066>070-074>076-081>083-270100-
SOUTHEAST LOWER MICHIGAN

CITY           SKY/WX    TMP DP  RH WIND       PRES   REMARKS
ADRIAN         CLEAR     38  23  55 SW10      30.03R WCI  31
6HR MIN TEMP:  35; 6HR MAX TEMP:  41;

ALMA           CLEAR     39  19  44 SW13G18   29.93R WCI  31
6HR MIN TEMP:  34; 6HR MAX TEMP:  41;

ANN ARBOR      CLEAR     38  22  52 S10       30.00R WCI  31
BAD AXE        CLOUDY    37  21  52 SW17      29.91S WCI  27
6HR MIN TEMP:  35; 6HR MAX TEMP:  38;

DETROIT CITY   CLEAR     40  21  46 SW16G24   30.01R WCI  31
6HR MIN TEMP:  36; 6HR MAX TEMP:  41;

DETROIT        PTCLDY    40  21  46 SW18G28   30.03R WCI  31
6HR MIN TEMP:  37; 6HR MAX TEMP:  43;

FLINT          CLOUDY    40  21  46 SW8G20    29.96R WCI  34
6HR MIN TEMP:  36; 6HR MAX TEMP:  41;

GROSSE ILE     CLEAR     40  21  46 SW10G20   30.02S WCI  33
6HR MIN TEMP:  36; 6HR MAX TEMP:  41;

HILLSDALE      CLOUDY    37  23  56 SW13      29.99S WCI  29
HOWELL         MOCLDY    38  20  47 SW9G18    29.96S WCI  32
6HR MIN TEMP:  37; 6HR MAX TEMP:  41;


CITY           SKY/WX    TMP DP  RH WIND       PRES   REMARKS
JACKSON        CLOUDY    40  20  44 SW12      29.98R WCI  33
6HR MIN TEMP:  36; 6HR MAX TEMP:  42;

LANSING        CLEAR     39  21  48 SW12      29.96R WCI  32
6HR MIN TEMP:  36; 6HR MAX TEMP:  42;

MASON          CLEAR     38  25  58 SW5       29.96S WCI  35
MONROE         CLEAR     40  23  52 SW12      30.03R WCI  32
6HR MIN TEMP:  37; 6HR MAX TEMP:  43;

MT. CLEMENS    PTCLDY    40  21  46 SW17G28   29.98R WCI  31
6HR MIN TEMP:  38; 6HR MAX TEMP:  41;

PONTIAC        MOCLDY    39  19  44 S9        29.96R WCI  33
6HR MIN TEMP:  35; 6HR MAX TEMP:  40;

PORT HOPE        N/A     37  23  56 VRB7      29.88S WCI  32
6HR MIN TEMP:  35; 6HR MAX TEMP:  38;

PORT HURON     CLOUDY    36  25  64 S9        29.99R WCI  29
TRI CITIES     PTCLDY    37  25  61 SW14      29.92R WCI  28
6HR MIN TEMP:  34; 6HR MAX TEMP:  39;

YPSILANTI      CLEAR     40  23  50 SW17      30.01R WCI  31
6HR MIN TEMP:  36; 6HR MAX TEMP:  42;

$$
MIZ043>046-050>051-056>058-064>065-071>073-077>080-270100-
SOUTHWEST LOWER MICHIGAN

CITY           SKY/WX    TMP DP  RH WIND       PRES   REMARKS
BATTLE CREEK   PTCLDY    40  21  46 SW12      29.97R WCI  33
6HR MIN TEMP:  36; 6HR MAX TEMP:  43;

BENTON HARBOR  MOCLDY    43  21  41 SW13      29.98R
6HR MIN TEMP:  39; 6HR MAX TEMP:  46;

BIG RAPIDS     CLEAR     36  25  63 SW10G18   29.88R WCI  28
6HR MIN TEMP:  32; 6HR MAX TEMP:  38;

COLDWATER      CLOUDY    40  20  45 SW12      30.00R WCI  33
6HR MIN TEMP:  37; 6HR MAX TEMP:  43;

HOLLAND        CLEAR     39  25  57 SW12      29.96R WCI  32
6HR MIN TEMP:  36; 6HR MAX TEMP:  43;

GRAND RAPIDS   CLEAR     39  21  48 SW16      29.94R WCI  30
6HR MIN TEMP:  33; 6HR MAX TEMP:  43; 6HR PCP: TRACE;

KALAMAZOO      PTCLDY    41  19  41 SW12      29.98R
6HR MIN TEMP:  36; 6HR MAX TEMP:  45;

MARSHALL       PTCLDY    40  22  47 SW13G20   29.97R WCI  33
6HR MIN TEMP:  36; 6HR MAX TEMP:  42;

MOUNT PLEASANT CLEAR     38  23  55 SW10G16   29.90R WCI  31
6HR MIN TEMP:  34; 6HR MAX TEMP:  40;

MUSKEGON       CLEAR     38  29  70 SW14      29.94R WCI  30
6HR MIN TEMP:  35; 6HR MAX TEMP:  42;

STURGIS        CLOUDY    40  24  51 SW14      29.99S WCI  33
6HR MIN TEMP:  37; 6HR MAX TEMP:  43;

$$
MIZ016>042-270100-
NORTHERN LOWER MICHIGAN

CITY           SKY/WX    TMP DP  RH WIND       PRES   REMARKS
ALPENA         CLEAR     34  25  69 SW13      29.81R WCI  25
6HR MIN TEMP:  32; 6HR MAX TEMP:  36; 6HR PCP: TRACE;

BEAVER ISLAND  MOCLDY    35  28  76 SW23G31   29.76R WCI  23
6HR MIN TEMP:  30; 6HR MAX TEMP:  35;

BELLAIRE       MOCLDY    36  26  69 SW7       29.83R WCI  30
6HR MIN TEMP:  32; 6HR MAX TEMP:  36;

CADILLAC       CLEAR     32  23  69 SW10      29.83R WCI  24
CHARLEVOIX     MOCLDY    35  27  73 SW15G28   29.82R WCI  25
6HR MIN TEMP:  32; 6HR MAX TEMP:  36;

GAYLORD        PTCLDY    33  23  66 SW14      29.78R WCI  23
6HR MIN TEMP:  30; 6HR MAX TEMP:  33; 6HR PCP: TRACE;

HOUGHTON LAKE  CLEAR     33  23  66 SW13      29.84R WCI  24
6HR MIN TEMP:  31; 6HR MAX TEMP:  34; 6HR PCP: TRACE;

MANISTEE       CLOUDY    37  27  67 SW12G17   29.86R WCI  29
OSCODA         CLEAR     34  22  63 SW9       29.85S WCI  26
6HR MIN TEMP:  34; 6HR MAX TEMP:  38;

PELLSTON       MOCLDY    35  24  64 SW17G24   29.77R WCI  25
6HR MIN TEMP:  32; 6HR MAX TEMP:  35; 6HR PCP: TRACE;

TRAVERSE CITY  CLOUDY    36  25  64 SW7       29.83R WCI  30
6HR MIN TEMP:  33; 6HR MAX TEMP:  38; 6HR PCP: TRACE;

LUDINGTON      CLEAR     36  31  83 SW13G18   29.88R WCI  27
6HR MIN TEMP:  34; 6HR MAX TEMP:  38;

$$
MIZ007>008-015-270100-
EASTERN UPPER MICHIGAN

CITY           SKY/WX    TMP DP  RH WIND       PRES   REMARKS
KINROSS        CLOUDY    30  26  85 SW10G17   29.73R WCI  21
6HR MIN TEMP:  30; 6HR MAX TEMP:  31; 6HR PCP:  0.01;

MACKINAC ISLAN CLOUDY    32  27  83 SW13G26   29.74R WCI  22
6HR MIN TEMP:  30; 6HR MAX TEMP:  32;

NEWBERRY       PTCLDY    29  26  88 SW12G22   29.71R WCI  19
6HR MIN TEMP:  28; 6HR MAX TEMP:  30;

S. S. MARIE    CLOUDY    32  25  75 SW10      29.71R WCI  24
6HR MIN TEMP:  31; 6HR MAX TEMP:  32; 6HR PCP:  0.03;

$$
MIZ004>006-011>014-085-270100-
CENTRAL UPPER MICHIGAN

CITY           SKY/WX    TMP DP  RH WIND       PRES   REMARKS
MANISTIQUE     PTCLDY    30  29  97 W6        29.75R WCI  24
6HR MIN TEMP:  28; 6HR MAX TEMP:  33;

ESCANABA       PTCLDY    31  26  82 W13       29.79R WCI  21
6HR MIN TEMP:  30; 6HR MAX TEMP:  37; 6HR PCP: TRACE;

MENOMINEE      CLOUDY    36  20  52 W9G17     29.82R WCI  29
6HR MIN TEMP:  33; 6HR MAX TEMP:  38; 6HR PCP: TRACE;

SAWYER-GWINN   PTCLDY    25  18  74 W14       29.75R WCI  13
$$
MIZ001>003-009>011-084-270100-
WESTERN UPPER MICHIGAN

CITY           SKY/WX    TMP DP  RH WIND       PRES   REMARKS
IRON MOUNTAIN  MOCLDY    27  18  69 NW12      29.77R WCI  17
6HR MIN TEMP:  27; 6HR MAX TEMP:  35; 6HR PCP: TRACE;

HOUGHTON       MIX PCPN  20   8  60 W21       29.76R WCI   4
6HR MIN TEMP:  20; 6HR MAX TEMP:  30; 6HR PCP:  0.02;

COPPER HARBOR    N/A     24  13  62 N25       29.76R WCI   8
6HR MIN TEMP:  23; 6HR MAX TEMP:  32; 6HR PCP:  0.04;

IRONWOOD       CLEAR     20   8  60 NW7       29.84R WCI  11
6HR MIN TEMP:  20; 6HR MAX TEMP:  29; 6HR PCP: TRACE;

$$

ABBREVIATIONS USED IN REMARKS
   TC - TEMPERATURE IN CELSIUS
  WCI - WIND CHILL INDEX
   HX - HEAT INDEX
  VSB - VISIBILITY





USA.gov is the U.S. government's official web portal to all federal, state and local government web resources and services.